Total_Precipitation_Accumulation
0.35 0.04 0.04 0.09 0.49 0.50 1.76 1.63 2.06 1.14 1.55 0.70 0.90 0.66 1.42 0.21 0.50 1.04 0.71 0.34 0.52 0.13 0.27 0.05 0.05 0.07 0.80 0.43 0.16 0.28 0.20 1.01 0.20 1.64 1.15 0.67 0.42 0.52 0.50 0.54 0.60 0.56 0.30 0.31 0.38 0.63 0.84 0.49 0.74 0.88 0.98 0.71 0.66 0.82 0.61 0.58 0.78 0.68 0.74 0.50 0.29 0.27 0.28 0.10 0.06 0.05 0.05 0.05 0.04 0.03 0.06 0.04 0.08 0.11 0.07 0.05 0.10 0.07 0.05 0.04 0.11 0.08 0.07 0.11 0.13 0.08 0.04 0.04 0.04 0.05 0.07 0.08 0.09 0.12 0.16 0.09 0.11
0.08 0.02 0.07 0.26 0.61 2.29 1.83 0.79 1.55 0.91 0.62 0.88 0.55 0.90 0.79 0.57 0.68 0.69 0.37 0.93 0.42 0.32 0.04 0.11 0.04 0.06 0.13 0.03 0.09 0.08 0.12 0.15 0.08 0.13 0.26 0.31 0.42 0.50 0.30 0.36 0.20 0.31 0.25 0.21 0.23 0.51 0.46 0.73 0.72 0.73 0.62 0.48 0.44 0.41 0.58 0.80 0.54 0.63 0.42 0.25 0.28 0.21 0.12 0.07 0.05 0.05 0.03 0.03 0.05 0.14 0.07 0.07 0.11 0.07 0.05 0.07 0.08 0.09 0.06 0.09 0.12 0.09 0.11 0.09 0.11 0.08 0.07 0.06 0.05 0.03 0.06 0.06 0.09 0.12 0.10 0.20 0.14
0.05 0.09 0.20 0.54 0.41 0.75 0.95 1.03 1.50 0.85 0.91 0.85 0.55 0.49 0.55 0.41 0.82 0.61 0.48 0.26 0.12 0.04 0.09 0.09 0.07 0.21 0.21 0.06 0.13 0.25 0.23 0.16 0.07 0.08 0.37 0.37 0.46 0.70 0.30 0.19 0.26 0.20 0.25 0.26 0.23 0.37 0.36 0.51 0.31 0.60 0.60 0.56 0.29 0.39 0.53 0.46 0.29 0.34 0.46 0.20 0.28 0.13 0.11 0.06 0.04 0.03 0.04 0.07 0.08 0.07 0.07 0.09 0.11 0.06 0.04 0.10 0.11 0.10 0.18 0.08 0.14 0.08 0.14 0.08 0.12 0.09 0.09 0.10 0.07 0.05 0.08 0.08 0.11 0.13 0.12 0.14 0.11
0.11 0.19 0.61 0.49 1.81 0.93 0.74 1.37 0.75 1.08 0.76 0.34 0.55 0.43 0.51 0.66 0.60 0.53 0.30 0.18 0.15 0.06 0.12 0.20 0.44 0.03 0.16 0.08 0.11 0.06 0.10 0.24 0.11 0.06 0.54 0.50 0.23 0.31 0.19 0.24 0.17 0.15 0.20 0.28 0.21 0.26 0.37 0.36 0.24 0.29 0.37 0.34 0.22 0.35 0.30 0.31 0.26 0.20 0.22 0.13 0.14 0.15 0.07 0.07 0.03 0.04 0.02 0.03 0.03 0.05 0.09 0.13 0.07 0.09 0.06 0.11 0.11 0.22 0.15 0.12 0.13 0.11 0.16 0.18 0.18 0.11 0.07 0.11 0.11 0.13 0.14 0.11 0.08 0.08 0.14 0.10 0.14
0.17 0.54 0.36 0.80 1.22 1.60 1.28 1.18 0.45 0.63 0.71 0.55 0.70 0.24 0.18 0.13 0.42 0.08 0.09 0.28 0.07 0.23 0.05 0.12 0.10 0.13 0.11 0.13 0.16 0.47 0.15 0.12 0.12 0.06 0.13 0.15 0.08 0.15 0.14 0.18 0.21 0.22 0.22 0.16 0.20 0.27 0.25 0.21 0.23 0.18 0.26 0.22 0.14 0.21 0.20 0.18 0.15 0.14 0.19 0.14 0.13 0.06 0.09 0.09 0.09 0.07 0.05 0.04 0.08 0.12 0.09 0.10 0.09 0.14 0.12 0.11 0.20 0.14 0.15 0.21 0.16 0.15 0.18 0.12 0.16 0.13 0.15 0.13 0.15 0.19 0.16 0.18 0.14 0.13 0.12 0.12 0.19
0.15 0.27 0.50 1.32 2.95 0.81 1.00 0.96 0.88 0.34 0.43 0.12 0.34 0.37 0.41 0.48 0.51 0.15 0.18 0.18 0.14 0.28 0.07 0.14 0.13 0.19 0.10 0.04 0.06 0.09 0.05 0.31 0.12 0.09 0.13 0.19 0.13 0.20 0.16 0.15 0.22 0.20 0.22 0.22 0.22 0.19 0.35 0.13 0.25 0.17 0.12 0.18 0.11 0.12 0.13 0.15 0.10 0.14 0.14 0.09 0.07 0.08 0.07 0.09 0.08 0.04 0.07 0.12 0.05 0.11 0.16 0.18 0.06 0.12 0.08 0.13 0.16 0.15 0.11 0.17 0.15 0.21 0.11 0.14 0.18 0.08 0.10 0.08 0.16 0.16 0.13 0.15 0.09 0.11 0.08 0.15 0.20
0.39 0.57 0.99 0.87 0.73 1.16 0.90 0.48 0.14 0.23 0.21 0.14 0.16 0.43 0.45 0.21 0.28 0.31 0.04 0.15 0.13 0.08 0.05 0.05 0.02 0.05 0.17 0.11 0.04 0.04 0.04 0.02 0.09 0.07 0.03 0.10 0.14 0.11 0.12 0.17 0.21 0.22 0.23 0.17 0.14 0.15 0.21 0.11 0.14 0.16 0.16 0.13 0.14 0.13 0.12 0.13 0.07 0.07 0.09 0.09 0.06 0.06 0.07 0.08 0.08 0.09 0.05 0.07 0.10 0.12 0.13 0.10 0.11 0.10 0.11 0.11 0.09 0.15 0.12 0.10 0.08 0.10 0.09 0.08 0.05 0.08 0.10 0.09 0.12 0.08 0.08 0.07 0.07 0.04 0.16 0.21 0.18
0.06 0.66 0.50 0.77 0.51 0.57 0.63 0.14 0.18 0.24 0.08 0.37 0.13 0.28 0.07 0.05 0.16 0.36 0.06 0.15 0.01 0.05 0.06 0.07 0.08 0.14 0.16 0.02 0.33 0.18 0.06 0.02 0.03 0.01 0.02 0.05 0.08 0.13 0.15 0.17 0.28 0.21 0.20 0.15 0.15 0.22 0.14 0.11 0.12 0.20 0.19 0.14 0.13 0.11 0.19 0.11 0.07 0.10 0.07 0.05 0.09 0.11 0.10 0.05 0.02 0.06 0.07 0.09 0.05 0.08 0.10 0.09 0.11 0.10 0.07 0.08 0.04 0.05 0.03 0.07 0.10 0.11 0.07 0.05 0.08 0.08 0.13 0.08 0.04 0.04 0.04 0.05 0.02 0.03 0.06 0.07 0.07
0.07 0.61 0.26 0.66 0.84 0.34 0.20 0.14 0.21 0.24 0.01 0.02 0.16 0.19 0.07 0.02 0.09 0.08 0.06 0.03 0.02 0.02 0.04 0.07 0.05 0.15 0.31 0.14 0.25 0.18 0.11 0.04 0.00 0.00 0.02 0.06 0.10 0.12 0.11 0.14 0.17 0.20 0.16 0.12 0.10 0.16 0.26 0.07 0.10 0.11 0.13 0.11 0.13 0.15 0.16 0.08 0.06 0.08 0.07 0.10 0.05 0.06 0.04 0.04 0.03 0.04 0.09 0.09 0.12 0.07 0.11 0.09 0.04 0.06 0.06 0.06 0.05 0.05 0.04 0.04 0.05 0.03 0.05 0.05 0.04 0.10 0.07 0.05 0.03 0.03 0.03 0.03 0.03 0.03 0.07 0.03 0.05
0.46 0.26 1.27 0.63 0.19 0.41 0.04 0.13 0.31 0.28 0.28 0.30 0.52 0.24 0.30 0.06 0.08 0.20 0.02 0.02 0.02 0.03 0.05 0.04 0.02 0.20 0.11 0.21 0.13 0.15 0.13 0.03 0.01 0.02 0.03 0.04 0.06 0.06 0.09 0.11 0.10 0.08 0.13 0.18 0.07 0.11 0.15 0.18 0.11 0.09 0.16 0.12 0.16 0.13 0.11 0.17 0.10 0.04 0.05 0.06 0.09 0.06 0.05 0.02 0.03 0.09 0.09 0.09 0.11 0.07 0.08 0.11 0.04 0.02 0.03 0.03 0.04 0.04 0.07 0.06 0.01 0.04 0.04 0.02 0.06 0.05 0.06 0.03 0.04 0.04 0.03 0.03 0.02 0.04 0.03 0.05 0.12
0.62 0.13 0.10 1.09 0.49 0.31 0.17 0.05 0.15 0.02 0.12 0.23 0.18 0.17 0.30 0.17 0.10 0.22 0.06 0.04 0.02 0.01 0.03 0.02 0.07 0.09 0.05 0.15 0.22 0.11 0.03 0.02 0.01 0.04 0.05 0.04 0.04 0.08 0.09 0.16 0.08 0.06 0.12 0.16 0.09 0.14 0.29 0.28 0.15 0.12 0.13 0.16 0.16 0.12 0.13 0.28 0.08 0.06 0.02 0.03 0.03 0.02 0.02 0.03 0.03 0.04 0.07 0.04 0.06 0.05 0.02 0.06 0.03 0.04 0.04 0.02 0.02 0.03 0.04 0.03 0.02 0.02 0.02 0.02 0.02 0.02 0.03 0.02 0.02 0.04 0.05 0.04 0.04 0.06 0.05 0.07 0.12
0.69 0.49 0.30 0.60 0.41 0.26 0.14 0.18 0.05 0.07 0.22 0.36 0.42 0.17 0.29 0.04 0.05 0.00 0.03 0.08 0.01 0.00 0.01 0.03 0.11 0.04 0.07 0.12 0.19 0.25 0.06 0.03 0.04 0.01 0.05 0.04 0.06 0.05 0.08 0.08 0.09 0.09 0.08 0.19 0.09 0.11 0.17 0.26 0.38 0.28 0.08 0.09 0.15 0.21 0.10 0.11 0.09 0.03 0.05 0.05 0.01 0.01 0.02 0.02 0.04 0.05 0.07 0.04 0.05 0.04 0.16 0.18 0.09 0.09 0.13 0.11 0.01 0.00 0.02 0.02 0.01 0.02 0.03 0.03 0.05 0.05 0.03 0.06 0.05 0.04 0.05 0.05 0.07 0.03 0.05 0.10 0.20
0.49 0.72 0.70 0.73 0.33 0.16 0.34 0.10 0.17 0.12 0.10 0.11 0.03 0.05 0.08 0.17 0.08 0.00 0.02 0.01 0.00 0.01 0.01 0.06 0.01 0.01 0.03 0.10 0.17 0.13 0.10 0.05 0.02 0.01 0.03 0.03 0.03 0.05 0.05 0.07 0.05 0.05 0.06 0.07 0.14 0.17 0.19 0.15 0.28 0.32 0.24 0.09 0.21 0.17 0.15 0.09 0.20 0.05 0.02 0.01 0.01 0.01 0.02 0.02 0.02 0.05 0.01 0.02 0.09 0.24 0.16 0.25 0.20 0.13 0.22 0.14 0.09 0.02 0.01 0.01 0.02 0.04 0.07 0.03 0.06 0.02 0.06 0.05 0.04 0.05 0.08 0.07 0.04 0.05 0.07 0.05 0.16
0.18 0.48 0.70 0.58 0.03 0.03 0.15 0.04 0.04 0.18 0.19 0.03 0.28 0.12 0.09 0.02 0.05 0.08 0.03 0.04 0.00 0.02 0.01 0.01 0.00 0.01 0.16 0.03 0.47 0.19 0.05 0.04 0.02 0.03 0.02 0.04 0.03 0.04 0.04 0.04 0.06 0.06 0.08 0.12 0.10 0.14 0.24 0.20 0.22 0.19 0.26 0.33 0.35 0.27 0.22 0.17 0.07 0.03 0.02 0.01 0.02 0.02 0.01 0.02 0.01 0.03 0.01 0.01 0.04 0.14 0.20 0.18 0.23 0.31 0.20 0.24 0.22 0.03 0.00 0.01 0.02 0.04 0.06 0.06 0.04 0.07 0.07 0.06 0.06 0.05 0.08 0.07 0.13 0.16 0.24 0.20 0.23
0.14 0.26 0.44 0.20 0.31 0.08 0.03 0.26 0.01 0.13 0.28 0.02 0.10 0.21 0.31 0.22 0.40 0.28 0.20 0.11 0.05 0.00 0.00 0.00 0.00 0.00 0.09 0.02 0.12 0.05 0.02 0.04 0.02 0.01 0.03 0.04 0.03 0.04 0.05 0.07 0.08 0.09 0.08 0.15 0.13 0.17 0.20 0.13 0.18 0.23 0.22 0.28 0.31 0.33 0.27 0.15 0.16 0.10 0.06 0.03 0.01 0.03 0.03 0.01 0.01 0.01 0.00 0.04 0.06 0.23 0.17 0.19 0.37 0.39 0.19 0.23 0.13 0.04 0.02 0.00 0.00 0.02 0.04 0.05 0.06 0.09 0.07 0.06 0.05 0.07 0.10 0.06 0.08 0.10 0.18 0.19 0.11
0.03 0.06 0.15 0.19 0.42 0.22 0.02 0.06 0.00 0.10 0.08 0.03 0.01 0.06 0.40 0.11 0.10 0.14 0.17 0.25 0.10 0.00 0.00 0.00 0.00 0.03 0.05 0.00 0.01 0.00 0.00 0.01 0.02 0.02 0.03 0.07 0.06 0.06 0.06 0.07 0.14 0.17 0.12 0.17 0.17 0.16 0.15 0.10 0.19 0.18 0.25 0.24 0.30 0.24 0.24 0.24 0.13 0.03 0.02 0.03 0.01 0.01 0.00 0.01 0.00 0.01 0.01 0.00 0.05 0.19 0.17 0.29 0.32 0.30 0.20 0.44 0.28 0.08 0.09 0.03 0.00 0.01 0.04 0.03 0.06 0.05 0.04 0.06 0.06 0.04 0.07 0.07 0.06 0.05 0.06 0.10 0.09
0.01 0.03 0.34 0.31 0.32 0.29 0.01 0.04 0.07 0.26 0.02 0.01 0.33 0.09 0.05 0.03 0.03 0.07 0.03 0.20 0.05 0.00 0.00 0.00 0.00 0.00 0.00 0.00 0.00 0.00 0.01 0.00 0.01 0.02 0.04 0.11 0.11 0.20 0.23 0.21 0.20 0.23 0.24 0.26 0.16 0.16 0.18 0.13 0.11 0.16 0.13 0.15 0.09 0.15 0.20 0.17 0.17 0.08 0.04 0.01 0.02 0.00 0.00 0.01 0.00 0.01 0.00 0.01 0.09 0.13 0.16 0.12 0.06 0.10 0.08 0.15 0.10 0.10 0.08 0.03 0.01 0.00 0.02 0.04 0.08 0.04 0.07 0.06 0.12 0.09 0.07 0.08 0.18 0.11 0.11 0.06 0.11
0.03 0.21 0.27 0.27 0.37 0.16 0.01 0.22 0.04 0.01 0.08 0.00 0.03 0.01 0.23 0.00 0.00 0.00 0.00 0.07 0.01 0.00 0.00 0.00 0.00 0.00 0.00 0.00 0.00 0.00 0.01 0.01 0.03 0.03 0.06 0.08 0.09 0.15 0.19 0.21 0.18 0.25 0.20 0.28 0.23 0.16 0.15 0.14 0.15 0.13 0.18 0.14 0.15 0.17 0.09 0.10 0.10 0.15 0.13 0.08 0.16 0.05 0.03 0.03 0.03 0.05 0.04 0.11 0.00 0.12 0.06 0.06 0.07 0.08 0.16 0.08 0.18 0.06 0.14 0.09 0.01 0.01 0.04 0.03 0.09 0.08 0.06 0.08 0.10 0.11 0.12 0.07 0.09 0.13 0.07 0.18 0.27
0.04 0.07 0.12 0.62 0.32 0.14 0.08 0.04 0.17 0.08 0.01 0.04 0.06 0.03 0.00 0.01 0.00 0.00 0.02 0.00 0.00 0.02 0.00 0.00 0.00 0.00 0.00 0.00 0.00 0.00 0.01 0.02 0.01 0.02 0.03 0.03 0.04 0.04 0.07 0.11 0.08 0.13 0.17 0.19 0.28 0.19 0.13 0.12 0.08 0.08 0.09 0.14 0.18 0.16 0.14 0.07 0.10 0.11 0.11 0.10 0.04 0.02 0.06 0.07 0.05 0.06 0.06 0.11 0.10 0.15 0.11 0.22 0.10 0.12 0.13 0.12 0.14 0.05 0.09 0.02 0.08 0.01 0.02 0.02 0.09 0.11 0.07 0.14 0.13 0.11 0.13 0.09 0.12 0.14 0.21 0.13 0.35
0.01 0.01 0.42 0.21 0.23 0.03 0.01 0.03 0.03 0.01 0.03 0.01 0.01 0.01 0.00 0.04 0.00 0.00 0.02 0.00 0.00 0.06 0.02 0.00 0.00 0.00 0.00 0.01 0.00 0.00 0.01 0.01 0.01 0.01 0.01 0.02 0.02 0.03 0.07 0.06 0.07 0.04 0.08 0.10 0.13 0.16 0.12 0.10 0.07 0.05 0.08 0.09 0.09 0.15 0.08 0.15 0.11 0.16 0.10 0.10 0.19 0.04 0.04 0.10 0.05 0.05 0.06 0.15 0.06 0.07 0.11 0.12 0.09 0.06 0.07 0.09 0.06 0.03 0.09 0.02 0.08 0.10 0.09 0.06 0.05 0.13 0.03 0.04 0.07 0.06 0.11 0.21 0.14 0.26 0.23 0.34 0.46
0.00 0.01 0.07 0.40 0.19 0.08 0.07 0.02 0.00 0.05 0.00 0.01 0.02 0.00 0.00 0.01 0.00 0.06 0.01 0.01 0.01 0.00 0.02 0.00 0.00 0.00 0.00 0.00 0.00 0.00 0.01 0.01 0.03 0.01 0.01 0.02 0.02 0.01 0.05 0.03 0.08 0.04 0.05 0.07 0.11 0.09 0.10 0.14 0.16 0.09 0.09 0.09 0.08 0.08 0.17 0.08 0.12 0.14 0.13 0.16 0.19 0.04 0.15 0.11 0.07 0.09 0.13 0.13 0.06 0.08 0.11 0.03 0.08 0.06 0.15 0.04 0.09 0.07 0.09 0.15 0.12 0.20 0.17 0.17 0.07 0.20 0.27 0.19 0.23 0.35 0.83 0.46 0.33 0.41 0.40 0.42 0.56
0.00 0.01 0.01 0.03 0.21 0.07 0.07 0.11 0.01 0.00 0.00 0.02 0.00 0.01 0.13 0.00 0.01 0.01 0.01 0.37 0.13 0.01 0.00 0.00 0.00 0.00 0.00 0.00 0.00 0.00 0.00 0.00 0.01 0.01 0.00 0.00 0.01 0.01 0.03 0.01 0.03 0.02 0.03 0.08 0.07 0.07 0.09 0.10 0.07 0.09 0.09 0.08 0.06 0.06 0.04 0.06 0.06 0.12 0.19 0.04 0.08 0.03 0.03 0.08 0.11 0.05 0.07 0.05 0.20 0.15 0.03 0.03 0.10 0.26 0.14 0.03 0.06 0.08 0.10 0.23 0.08 0.07 0.10 0.10 0.20 0.17 0.09 0.11 0.17 0.18 0.37 0.28 0.38 0.55 0.44 0.57 0.36
0.00 0.00 0.00 0.00 0.00 0.13 0.22 0.07 0.01 0.00 0.00 0.01 0.01 0.00 0.00 0.00 0.00 0.00 0.02 0.32 0.06 0.03 0.00 0.00 0.00 0.00 0.00 0.00 0.00 0.01 0.00 0.00 0.00 0.00 0.00 0.00 0.01 0.00 0.01 0.04 0.05 0.02 0.01 0.03 0.03 0.07 0.07 0.09 0.06 0.05 0.09 0.08 0.06 0.06 0.06 0.10 0.11 0.05 0.06 0.06 0.04 0.05 0.06 0.05 0.04 0.22 0.05 0.05 0.11 0.04 0.04 0.15 0.12 0.08 0.10 0.07 0.08 0.08 0.10 0.09 0.08 0.12 0.11 0.17 0.13 0.16 0.09 0.15 0.12 0.18 0.24 0.45 0.25 0.40 0.65 0.71 0.55
0.00 0.00 0.00 0.00 0.00 0.01 0.12 0.19 0.01 0.00 0.00 0.00 0.00 0.00 0.00 0.00 0.05 0.01 0.03 0.02 0.00 0.00 0.00 0.00 0.00 0.00 0.00 0.00 0.00 0.00 0.00 0.00 0.00 0.01 0.00 0.00 0.00 0.00 0.00 0.03 0.01 0.01 0.01 0.01 0.03 0.05 0.07 0.08 0.04 0.05 0.05 0.07 0.09 0.06 0.05 0.10 0.11 0.09 0.07 0.08 0.05 0.02 0.06 0.03 0.18 0.14 0.04 0.14 0.19 0.08 0.01 0.05 0.06 0.05 0.08 0.13 0.17 0.13 0.12 0.19 0.09 0.07 0.10 0.18 0.13 0.07 0.17 0.28 0.31 0.38 0.20 0.67 0.51 0.45 0.25 0.17 0.28
0.00 0.00 0.00 0.00 0.00 0.01 0.00 0.00 0.01 0.00 0.00 0.00 0.00 0.00 0.00 0.00 0.01 0.01 0.02 0.01 0.00 0.00 0.00 0.00 0.00 0.00 0.00 0.00 0.00 0.00 0.00 0.01 0.00 0.00 0.00 0.00 0.01 0.00 0.02 0.00 0.00 0.00 0.00 0.02 0.01 0.03 0.03 0.04 0.08 0.04 0.05 0.05 0.05 0.05 0.04 0.03 0.04 0.06 0.03 0.07 0.05 0.04 0.02 0.06 0.06 0.09 0.05 0.03 0.14 0.13 0.08 0.08 0.04 0.05 0.07 0.10 0.21 0.52 0.49 0.25 0.21 0.20 0.04 0.07 0.05 0.27 0.27 0.39 0.57 0.39 0.43 0.61 0.57 0.41 0.20 0.19 0.12
0.00 0.00 0.00 0.00 0.00 0.00 0.00 0.00 0.00 0.00 0.00 0.00 0.00 0.00 0.00 0.00 0.00 0.00 0.01 0.01 0.00 0.00 0.00 0.00 0.00 0.00 0.00 0.00 0.00 0.00 0.00 0.00 0.00 0.00 0.00 0.00 0.00 0.01 0.01 0.00 0.00 0.00 0.00 0.00 0.01 0.02 0.03 0.03 0.04 0.05 0.02 0.03 0.04 0.05 0.03 0.04 0.03 0.03 0.03 0.03 0.05 0.06 0.08 0.02 0.06 0.09 0.08 0.09 0.07 0.07 0.08 0.08 0.08 0.04 0.07 0.09 0.18 0.58 0.46 0.27 0.10 0.09 0.12 0.17 0.08 0.35 0.28 0.31 0.58 0.51 0.42 0.21 0.15 0.12 0.17 0.14 0.14
0.00 0.00 0.00 0.00 0.00 0.00 0.00 0.00 0.00 0.00 0.00 0.00 0.00 0.00 0.00 0.00 0.00 0.02 0.00 0.00 0.00 0.00 0.00 0.00 0.00 0.00 0.00 0.00 0.00 0.00 0.00 0.00 0.00 0.00 0.00 0.00 0.00 0.00 0.00 0.00 0.00 0.00 0.00 0.00 0.02 0.04 0.03 0.03 0.04 0.03 0.02 0.02 0.03 0.03 0.02 0.02 0.02 0.03 0.02 0.02 0.04 0.03 0.03 0.04 0.06 0.08 0.12 0.17 0.10 0.04 0.04 0.14 0.06 0.05 0.05 0.28 0.44 0.67 0.27 0.09 0.18 0.15 0.10 0.19 0.30 0.23 0.17 0.26 0.38 0.19 0.21 0.09 0.12 0.23 0.19 0.13 0.16
0.00 0.00 0.00 0.00 0.00 0.00 0.00 0.00 0.00 0.00 0.00 0.00 0.00 0.01 0.00 0.00 0.00 0.00 0.01 0.00 0.00 0.00 0.00 0.00 0.00 0.00 0.00 0.00 0.00 0.00 0.00 0.00 0.00 0.00 0.00 0.00 0.00 0.01 0.00 0.01 0.00 0.00 0.00 0.00 0.02 0.01 0.01 0.02 0.05 0.03 0.03 0.03 0.02 0.02 0.02 0.02 0.02 0.03 0.05 0.03 0.04 0.02 0.02 0.02 0.04 0.03 0.04 0.14 0.14 0.06 0.02 0.02 0.04 0.03 0.08 0.30 0.25 0.13 0.11 0.12 0.13 0.07 0.09 0.09 0.11 0.17 0.14 0.09 0.09 0.08 0.18 0.40 0.33 0.24 0.25 0.41 0.26
0.00 0.00 0.00 0.00 0.00 0.00 0.00 0.00 0.00 0.00 0.00 0.00 0.00 0.02 0.00 0.00 0.00 0.00 0.00 0.00 0.00 0.00 0.00 0.00 0.00 0.00 0.00 0.00 0.00 0.00 0.00 0.00 0.00 0.00 0.00 0.00 0.00 0.00 0.00 0.00 0.01 0.00 0.00 0.03 0.00 0.00 0.00 0.01 0.01 0.02 0.01 0.02 0.02 0.01 0.02 0.01 0.03 0.02 0.02 0.02 0.03 0.04 0.02 0.02 0.02 0.01 0.05 0.03 0.06 0.02 0.03 0.03 0.01 0.02 0.04 0.06 0.02 0.04 0.04 0.05 0.06 0.09 0.11 0.18 0.25 0.28 0.14 0.18 0.23 0.16 0.29 0.40 0.35 0.25 0.25 0.31 0.46
0.00 0.00 0.00 0.00 0.00 0.00 0.00 0.00 0.00 0.00 0.00 0.00 0.00 0.11 0.00 0.02 0.00 0.00 0.00 0.00 0.00 0.00 0.01 0.00 0.01 0.00 0.00 0.00 0.00 0.00 0.00 0.00 0.00 0.00 0.00 0.00 0.00 0.00 0.01 0.01 0.00 0.01 0.00 0.02 0.00 0.01 0.01 0.02 0.01 0.04 0.02 0.02 0.01 0.01 0.01 0.01 0.02 0.01 0.01 0.01 0.02 0.02 0.04 0.04 0.02 0.00 0.02 0.03 0.01 0.01 0.04 0.06 0.02 0.02 0.03 0.04 0.04 0.10 0.03 0.09 0.08 0.17 0.25 0.43 0.21 0.62 0.44 0.29 0.24 0.23 0.16 0.22 0.29 0.46 0.42 0.26 0.23
0.00 0.00 0.00 0.00 0.00 0.00 0.00 0.00 0.00 0.00 0.00 0.00 0.00 0.10 0.03 0.00 0.00 0.00 0.00 0.00 0.00 0.01 0.00 0.03 0.01 0.00 0.01 0.00 0.01 0.01 0.00 0.00 0.00 0.00 0.00 0.00 0.00 0.00 0.02 0.00 0.01 0.01 0.00 0.01 0.00 0.00 0.00 0.01 0.01 0.02 0.02 0.02 0.02 0.02 0.01 0.01 0.02 0.03 0.01 0.01 0.02 0.03 0.03 0.01 0.00 0.01 0.01 0.01 0.01 0.06 0.10 0.01 0.06 0.10 0.06 0.09 0.07 0.05 0.07 0.11 0.21 0.14 0.30 0.26 0.21 0.25 0.20 0.14 0.20 0.38 0.71 0.42 0.29 0.19 0.20 0.13 0.13
0.00 0.00 0.00 0.00 0.00 0.00 0.00 0.00 0.00 0.00 0.00 0.00 0.00 0.05 0.03 0.00 0.00 0.00 0.00 0.00 0.00 0.00 0.00 0.00 0.00 0.00 0.01 0.02 0.02 0.03 0.03 0.00 0.00 0.00 0.00 0.00 0.00 0.00 0.01 0.00 0.00 0.00 0.00 0.02 0.02 0.01 0.00 0.04 0.04 0.01 0.01 0.01 0.03 0.01 0.01 0.01 0.02 0.04 0.01 0.01 0.00 0.01 0.00 0.01 0.03 0.01 0.02 0.02 0.02 0.08 0.09 0.04 0.05 0.20 0.19 0.12 0.12 0.06 0.06 0.14 0.30 0.37 0.20 0.18 0.21 0.21 0.13 0.19 0.17 0.25 0.25 0.15 0.14 0.12 0.09 0.04 0.01
0.00 0.00 0.00 0.01 0.00 0.00 0.00 0.00 0.00 0.00 0.00 0.00 0.00 0.15 0.01 0.01 0.00 0.00 0.02 0.00 0.00 0.00 0.02 0.00 0.00 0.00 0.00 0.00 0.03 0.03 0.02 0.02 0.00 0.00 0.00 0.02 0.00 0.00 0.02 0.00 0.00 0.00 0.03 0.02 0.02 0.01 0.01 0.01 0.01 0.01 0.01 0.00 0.03 0.01 0.00 0.00 0.03 0.02 0.01 0.01 0.01 0.00 0.01 0.06 0.05 0.02 0.04 0.04 0.01 0.01 0.10 0.08 0.06 0.16 0.16 0.20 0.13 0.21 0.30 0.17 0.13 0.14 0.18 0.13 0.19 0.21 0.30 0.15 0.06 0.15 0.23 0.16 0.07 0.14 0.06 0.04 0.13
0.00 0.00 0.00 0.00 0.00 0.00 0.00 0.00 0.00 0.00 0.00 0.00 0.00 0.00 0.01 0.01 0.00 0.02 0.00 0.00 0.00 0.00 0.03 0.00 0.00 0.00 0.01 0.02 0.01 0.01 0.05 0.05 0.04 0.02 0.02 0.01 0.01 0.02 0.01 0.02 0.03 0.05 0.00 0.02 0.01 0.00 0.00 0.00 0.00 0.00 0.00 0.01 0.01 0.01 0.01 0.00 0.06 0.02 0.01 0.04 0.02 0.02 0.05 0.03 0.02 0.05 0.05 0.04 0.15 0.24 0.11 0.12 0.11 0.12 0.28 0.29 0.21 0.12 0.08 0.08 0.06 0.11 0.11 0.09 0.13 0.20 0.14 0.09 0.06 0.09 0.26 0.13 0.07 0.06 0.06 0.01 0.01
0.00 0.00 0.00 0.00 0.00 0.00 0.00 0.00 0.00 0.00 0.00 0.00 0.00 0.00 0.00 0.00 0.00 0.01 0.00 0.00 0.00 0.00 0.00 0.02 0.00 0.04 0.01 0.02 0.01 0.04 0.04 0.04 0.05 0.02 0.02 0.01 0.00 0.01 0.01 0.01 0.01 0.00 0.00 0.00 0.00 0.00 0.00 0.00 0.00 0.00 0.00 0.00 0.00 0.00 0.00 0.01 0.01 0.02 0.01 0.03 0.08 0.04 0.04 0.03 0.03 0.06 0.03 0.10 0.11 0.12 0.08 0.11 0.16 0.18 0.09 0.10 0.06 0.04 0.03 0.06 0.06 0.07 0.07 0.08 0.09 0.13 0.06 0.08 0.09 0.08 0.08 0.08 0.05 0.07 0.03 0.02 0.02
0.00 0.00 0.00 0.00 0.00 0.00 0.01 0.00 0.00 0.00 0.00 0.00 0.00 0.01 0.02 0.01 0.00 0.01 0.00 0.00 0.00 0.00 0.00 0.02 0.02 0.11 0.05 0.05 0.03 0.03 0.06 0.06 0.01 0.07 0.02 0.00 0.01 0.01 0.01 0.00 0.00 0.01 0.01 0.00 0.01 0.00 0.00 0.00 0.00 0.00 0.00 0.00 0.00 0.01 0.01 0.01 0.02 0.06 0.03 0.03 0.02 0.03 0.05 0.11 0.04 0.02 0.13 0.29 0.13 0.09 0.06 0.14 0.07 0.07 0.08 0.04 0.02 0.02 0.04 0.07 0.14 0.10 0.09 0.12 0.08 0.06 0.06 0.05 0.08 0.11 0.11 0.09 0.12 0.12 0.10 0.09 0.07
0.00 0.00 0.00 0.00 0.00 0.00 0.00 0.00 0.00 0.00 0.00 0.00 0.00 0.00 0.00 0.01 0.00 0.00 0.00 0.00 0.00 0.00 0.00 0.00 0.02 0.02 0.03 0.10 0.08 0.06 0.06 0.05 0.02 0.03 0.04 0.01 0.01 0.00 0.00 0.00 0.01 0.01 0.00 0.00 0.00 0.00 0.00 0.00 0.00 0.01 0.01 0.00 0.01 0.01 0.02 0.05 0.07 0.05 0.02 0.02 0.08 0.05 0.05 0.07 0.04 0.06 0.13 0.19 0.13 0.06 0.09 0.07 0.09 0.14 0.11 0.04 0.02 0.05 0.06 0.09 0.08 0.03 0.03 0.03 0.05 0.08 0.08 0.07 0.10 0.08 0.11 0.08 0.11 0.03 0.02 0.01 0.01
0.00 0.00 0.00 0.00 0.00 0.00 0.00 0.00 0.00 0.00 0.00 0.00 0.00 0.01 0.00 0.00 0.00 0.00 0.00 0.00 0.00 0.00 0.00 0.00 0.00 0.01 0.02 0.04 0.06 0.02 0.05 0.02 0.03 0.03 0.02 0.05 0.04 0.00 0.00 0.00 0.00 0.00 0.00 0.00 0.00 0.00 0.00 0.01 0.01 0.01 0.02 0.00 0.00 0.02 0.05 0.02 0.03 0.06 0.02 0.03 0.02 0.04 0.04 0.05 0.03 0.02 0.06 0.07 0.06 0.07 0.09 0.12 0.11 0.09 0.11 0.11 0.11 0.18 0.17 0.04 0.02 0.03 0.03 0.04 0.08 0.06 0.07 0.05 0.08 0.10 0.07 0.17 0.06 0.02 0.02 0.01 0.01
0.00 0.00 0.00 0.00 0.00 0.00 0.00 0.00 0.00 0.00 0.00 0.00 0.00 0.00 0.02 0.00 0.00 0.00 0.00 0.00 0.00 0.00 0.00 0.00 0.00 0.01 0.01 0.05 0.04 0.01 0.02 0.03 0.02 0.05 0.06 0.01 0.00 0.01 0.01 0.00 0.00 0.00 0.00 0.00 0.00 0.00 0.00 0.00 0.00 0.00 0.00 0.01 0.02 0.02 0.01 0.03 0.03 0.02 0.01 0.01 0.01 0.01 0.01 0.01 0.01 0.03 0.02 0.02 0.02 0.03 0.07 0.07 0.03 0.06 0.03 0.06 0.09 0.16 0.13 0.05 0.06 0.05 0.04 0.07 0.06 0.08 0.06 0.10 0.09 0.12 0.19 0.08 0.03 0.02 0.02 0.00 0.02
0.00 0.00 0.00 0.00 0.00 0.00 0.00 0.00 0.00 0.00 0.00 0.00 0.00 0.00 0.00 0.01 0.00 0.00 0.00 0.00 0.00 0.00 0.00 0.00 0.00 0.01 0.01 0.03 0.02 0.03 0.01 0.01 0.04 0.02 0.03 0.02 0.04 0.00 0.00 0.00 0.00 0.00 0.00 0.00 0.00 0.00 0.00 0.00 0.00 0.00 0.00 0.02 0.01 0.01 0.03 0.01 0.00 0.00 0.00 0.01 0.00 0.01 0.03 0.01 0.00 0.01 0.02 0.02 0.03 0.01 0.08 0.08 0.06 0.07 0.10 0.13 0.06 0.10 0.04 0.08 0.09 0.08 0.12 0.09 0.11 0.10 0.08 0.15 0.08 0.15 0.16 0.09 0.06 0.05 0.03 0.03 0.05
0.00 0.00 0.00 0.00 0.00 0.00 0.00 0.00 0.00 0.00 0.00 0.00 0.00 0.00 0.00 0.07 0.02 0.01 0.00 0.00 0.00 0.00 0.00 0.00 0.00 0.00 0.01 0.01 0.01 0.00 0.03 0.03 0.07 0.05 0.02 0.01 0.00 0.00 0.00 0.00 0.00 0.00 0.00 0.00 0.00 0.00 0.00 0.00 0.00 0.00 0.00 0.00 0.00 0.00 0.00 0.00 0.02 0.01 0.02 0.01 0.01 0.01 0.00 0.01 0.02 0.02 0.01 0.02 0.03 0.02 0.08 0.07 0.10 0.07 0.08 0.14 0.05 0.02 0.03 0.05 0.04 0.04 0.04 0.11 0.11 0.07 0.13 0.18 0.18 0.18 0.19 0.08 0.08 0.10 0.08 0.04 0.03
0.00 0.00 0.00 0.00 0.00 0.00 0.00 0.00 0.00 0.00 0.00 0.00 0.00 0.02 0.06 0.14 0.05 0.03 0.00 0.00 0.00 0.00 0.00 0.00 0.00 0.00 0.00 0.00 0.01 0.00 0.00 0.00 0.00 0.03 0.03 0.02 0.02 0.01 0.00 0.00 0.00 0.00 0.00 0.00 0.00 0.00 0.00 0.00 0.00 0.00 0.00 0.00 0.00 0.00 0.00 0.00 0.00 0.00 0.02 0.03 0.01 0.01 0.01 0.01 0.00 0.00 0.01 0.01 0.01 0.01 0.06 0.14 0.12 0.07 0.02 0.03 0.01 0.01 0.02 0.03 0.03 0.04 0.09 0.06 0.07 0.11 0.20 0.12 0.16 0.13 0.19 0.16 0.09 0.10 0.06 0.11 0.03
0.00 0.00 0.00 0.00 0.00 0.00 0.00 0.00 0.00 0.01 0.03 0.01 0.00 0.03 0.05 0.03 0.17 0.09 0.01 0.01 0.00 0.00 0.00 0.00 0.00 0.00 0.00 0.00 0.00 0.01 0.01 0.01 0.00 0.00 0.02 0.09 0.04 0.02 0.04 0.00 0.00 0.00 0.00 0.00 0.00 0.00 0.00 0.00 0.00 0.00 0.00 0.00 0.00 0.00 0.00 0.00 0.00 0.01 0.00 0.01 0.00 0.01 0.01 0.00 0.00 0.00 0.00 0.00 0.00 0.01 0.01 0.01 0.01 0.01 0.01 0.01 0.01 0.01 0.02 0.04 0.07 0.03 0.08 0.09 0.07 0.08 0.09 0.13 0.21 0.17 0.13 0.12 0.17 0.17 0.15 0.09 0.03
0.00 0.00 0.00 0.00 0.00 0.00 0.00 0.00 0.00 0.00 0.00 0.00 0.00 0.00 0.03 0.02 0.02 0.01 0.00 0.00 0.00 0.00 0.00 0.00 0.00 0.00 0.00 0.00 0.00 0.00 0.00 0.02 0.00 0.00 0.00 0.01 0.02 0.01 0.00 0.00 0.00 0.00 0.00 0.00 0.00 0.00 0.00 0.00 0.00 0.00 0.00 0.00 0.00 0.00 0.00 0.00 0.00 0.00 0.00 0.00 0.00 0.00 0.00 0.00 0.00 0.00 0.00 0.00 0.01 0.01 0.01 0.01 0.01 0.01 0.01 0.01 0.01 0.03 0.02 0.01 0.01 0.03 0.04 0.04 0.06 0.14 0.10 0.13 0.17 0.12 0.15 0.14 0.18 0.08 0.08 0.06 0.03
0.00 0.00 0.00 0.00 0.00 0.00 0.00 0.00 0.00 0.00 0.00 0.01 0.01 0.00 0.06 0.00 0.00 0.00 0.01 0.00 0.01 0.01 0.00 0.00 0.00 0.00 0.00 0.00 0.00 0.00 0.00 0.01 0.00 0.00 0.00 0.01 0.00 0.01 0.01 0.00 0.00 0.01 0.00 0.00 0.00 0.00 0.00 0.00 0.00 0.00 0.00 0.00 0.00 0.00 0.00 0.00 0.00 0.00 0.00 0.00 0.00 0.00 0.00 0.00 0.00 0.00 0.00 0.00 0.00 0.00 0.00 0.00 0.00 0.01 0.01 0.02 0.03 0.01 0.01 0.00 0.01 0.02 0.01 0.05 0.03 0.09 0.04 0.08 0.09 0.10 0.11 0.11 0.10 0.07 0.07 0.04 0.06
0.00 0.00 0.00 0.00 0.00 0.00 0.00 0.00 0.00 0.00 0.00 0.00 0.00 0.00 0.07 0.01 0.00 0.00 0.00 0.00 0.01 0.01 0.00 0.01 0.00 0.01 0.01 0.01 0.01 0.01 0.00 0.00 0.00 0.01 0.00 0.00 0.00 0.01 0.02 0.02 0.01 0.00 0.00 0.00 0.00 0.00 0.00 0.00 0.00 0.00 0.00 0.00 0.00 0.00 0.00 0.00 0.00 0.00 0.00 0.00 0.00 0.00 0.00 0.00 0.00 0.00 0.00 0.00 0.00 0.00 0.00 0.00 0.00 0.01 0.01 0.01 0.01 0.00 0.01 0.01 0.00 0.01 0.02 0.03 0.02 0.02 0.05 0.05 0.05 0.05 0.06 0.04 0.03 0.07 0.04 0.02 0.03
0.00 0.00 0.00 0.00 0.00 0.00 0.00 0.00 0.00 0.00 0.00 0.00 0.00 0.01 0.00 0.02 0.00 0.00 0.00 0.00 0.00 0.00 0.00 0.00 0.01 0.01 0.01 0.00 0.02 0.01 0.00 0.00 0.01 0.00 0.02 0.00 0.02 0.01 0.00 0.01 0.00 0.00 0.00 0.00 0.00 0.00 0.00 0.00 0.00 0.00 0.00 0.00 0.00 0.00 0.00 0.00 0.00 0.00 0.00 0.00 0.00 0.00 0.00 0.00 0.00 0.00 0.00 0.00 0.00 0.00 0.00 0.00 0.00 0.00 0.00 0.00 0.01 0.00 0.00 0.00 0.00 0.01 0.01 0.01 0.01 0.04 0.02 0.03 0.03 0.02 0.03 0.01 0.02 0.03 0.04 0.04 0.06
0.00 0.00 0.00 0.00 0.00 0.00 0.00 0.00 0.00 0.00 0.00 0.00 0.00 0.00 0.00 0.03 0.00 0.00 0.00 0.00 0.00 0.00 0.00 0.00 0.00 0.00 0.00 0.00 0.01 0.00 0.00 0.01 0.00 0.02 0.01 0.00 0.01 0.00 0.00 0.01 0.00 0.00 0.00 0.00 0.00 0.00 0.00 0.00 0.00 0.00 0.00 0.00 0.00 0.00 0.00 0.00 0.00 0.00 0.00 0.00 0.00 0.00 0.00 0.00 0.00 0.00 0.00 0.00 0.00 0.00 0.00 0.00 0.00 0.00 0.00 0.00 0.00 0.00 0.00 0.00 0.00 0.00 0.01 0.01 0.01 0.01 0.01 0.01 0.01 0.04 0.02 0.02 0.03 0.02 0.02 0.03 0.08
0.00 0.00 0.00 0.00 0.00 0.00 0.00 0.00 0.00 0.00 0.00 0.00 0.00 0.00 0.00 0.00 0.00 0.00 0.00 0.00 0.00 0.00 0.00 0.00 0.00 0.00 0.00 0.00 0.01 0.00 0.00 0.01 0.01 0.00 0.01 0.01 0.00 0.00 0.00 0.00 0.02 0.00 0.00 0.00 0.00 0.00 0.00 0.00 0.00 0.00 0.00 0.00 0.00 0.00 0.00 0.00 0.00 0.00 0.00 0.00 0.00 0.00 0.00 0.00 0.00 0.00 0.00 0.00 0.00 0.00 0.00 0.00 0.00 0.00 0.00 0.00 0.00 0.00 0.00 0.00 0.00 0.00 0.00 0.00 0.00 0.00 0.00 0.00 0.01 0.01 0.02 0.01 0.01 0.01 0.02 0.04 0.03
0.00 0.00 0.00 0.00 0.00 0.00 0.00 0.00 0.00 0.00 0.00 0.00 0.00 0.00 0.00 0.00 0.00 0.00 0.00 0.00 0.00 0.00 0.00 0.00 0.00 0.00 0.00 0.00 0.00 0.00 0.00 0.00 0.01 0.00 0.00 0.00 0.01 0.01 0.00 0.00 0.00 0.00 0.00 0.00 0.00 0.00 0.00 0.00 0.00 0.00 0.00 0.00 0.00 0.00 0.00 0.00 0.00 0.00 0.00 0.00 0.00 0.00 0.00 0.00 0.00 0.00 0.00 0.00 0.00 0.00 0.00 0.00 0.00 0.00 0.00 0.00 0.00 0.00 0.00 0.00 0.00 0.00 0.00 0.00 0.00 0.00 0.00 0.00 0.01 0.01 0.01 0.01 0.01 0.01 0.01 0.01 0.01
0.00 0.00 0.00 0.00 0.00 0.00 0.00 0.00 0.00 0.00 0.00 0.00 0.00 0.00 0.00 0.00 0.00 0.00 0.00 0.00 0.00 0.00 0.00 0.00 0.00 0.00 0.00 0.00 0.01 0.00 0.00 0.00 0.00 0.01 0.02 0.01 0.00 0.01 0.02 0.00 0.01 0.00 0.00 0.00 0.00 0.00 0.00 0.00 0.00 0.00 0.00 0.00 0.00 0.00 0.00 0.00 0.00 0.00 0.00 0.00 0.00 0.00 0.00 0.00 0.00 0.00 0.00 0.00 0.00 0.00 0.00 0.00 0.00 0.00 0.00 0.00 0.00 0.00 0.00 0.00 0.00 0.00 0.00 0.00 0.00 0.00 0.00 0.01 0.01 0.01 0.01 0.01 0.01 0.01 0.00 0.01 0.05
0.00 0.00 0.00 0.00 0.00 0.00 0.00 0.00 0.00 0.00 0.00 0.00 0.01 0.00 0.00 0.00 0.00 0.00 0.00 0.00 0.00 0.00 0.00 0.00 0.00 0.00 0.00 0.01 0.00 0.00 0.00 0.00 0.00 0.00 0.01 0.01 0.01 0.01 0.01 0.00 0.00 0.00 0.00 0.00 0.00 0.00 0.00 0.00 0.00 0.00 0.00 0.00 0.00 0.00 0.00 0.00 0.00 0.00 0.00 0.00 0.00 0.00 0.00 0.00 0.00 0.00 0.00 0.00 0.00 0.00 0.00 0.00 0.00 0.00 0.00 0.00 0.00 0.00 0.00 0.00 0.00 0.00 0.00 0.00 0.00 0.00 0.00 0.01 0.01 0.01 0.01 0.01 0.02 0.01 0.01 0.01 0.02
0.00 0.00 0.00 0.00 0.00 0.00 0.00 0.00 0.00 0.00 0.00 0.00 0.00 0.00 0.00 0.00 0.00 0.00 0.00 0.00 0.00 0.00 0.00 0.00 0.00 0.00 0.00 0.00 0.00 0.01 0.00 0.00 0.00 0.00 0.00 0.02 0.01 0.04 0.04 0.00 0.00 0.00 0.00 0.00 0.00 0.00 0.00 0.00 0.00 0.00 0.00 0.00 0.00 0.00 0.00 0.00 0.00 0.00 0.00 0.00 0.00 0.00 0.00 0.00 0.00 0.00 0.00 0.00 0.00 0.00 0.00 0.00 0.00 0.00 0.00 0.00 0.00 0.00 0.00 0.00 0.00 0.00 0.00 0.00 0.00 0.00 0.00 0.00 0.01 0.01 0.02 0.01 0.01 0.01 0.01 0.01 0.02
0.00 0.00 0.00 0.00 0.00 0.00 0.00 0.00 0.00 0.00 0.00 0.00 0.00 0.00 0.00 0.00 0.00 0.00 0.00 0.00 0.00 0.00 0.00 0.00 0.00 0.00 0.00 0.00 0.00 0.00 0.04 0.01 0.00 0.00 0.00 0.00 0.00 0.02 0.04 0.03 0.01 0.01 0.00 0.00 0.00 0.00 0.00 0.00 0.00 0.00 0.00 0.00 0.00 0.00 0.00 0.00 0.00 0.00 0.00 0.00 0.00 0.00 0.00 0.00 0.00 0.00 0.00 0.00 0.00 0.00 0.00 0.00 0.00 0.00 0.00 0.00 0.00 0.00 0.00 0.00 0.00 0.00 0.00 0.00 0.00 0.01 0.00 0.01 0.02 0.02 0.01 0.01 0.01 0.01 0.01 0.00 0.01
0.00 0.00 0.00 0.00 0.00 0.00 0.00 0.00 0.00 0.00 0.00 0.00 0.00 0.00 0.00 0.00 0.00 0.00 0.00 0.00 0.00 0.00 0.00 0.00 0.00 0.00 0.00 0.00 0.00 0.00 0.02 0.00 0.03 0.06 0.03 0.02 0.04 0.04 0.00 0.03 0.00 0.00 0.00 0.00 0.00 0.00 0.00 0.00 0.00 0.00 0.00 0.00 0.00 0.00 0.00 0.00 0.00 0.00 0.00 0.00 0.00 0.00 0.00 0.00 0.00 0.00 0.00 0.00 0.00 0.00 0.00 0.00 0.00 0.00 0.00 0.00 0.00 0.00 0.00 0.00 0.00 0.00 0.00 0.00 0.00 0.00 0.00 0.00 0.01 0.00 0.01 0.03 0.03 0.02 0.03 0.03 0.04
0.00 0.00 0.00 0.00 0.00 0.00 0.00 0.00 0.00 0.00 0.00 0.00 0.00 0.00 0.00 0.00 0.00 0.00 0.00 0.00 0.00 0.00 0.00 0.00 0.00 0.00 0.00 0.00 0.00 0.00 0.01 0.01 0.02 0.02 0.03 0.02 0.01 0.01 0.03 0.04 0.00 0.00 0.00 0.00 0.00 0.02 0.00 0.00 0.00 0.00 0.00 0.00 0.00 0.00 0.00 0.00 0.00 0.00 0.00 0.00 0.00 0.00 0.00 0.00 0.00 0.00 0.00 0.00 0.00 0.00 0.00 0.00 0.00 0.00 0.00 0.00 0.00 0.00 0.00 0.00 0.00 0.00 0.00 0.00 0.00 0.01 0.00 0.00 0.01 0.00 0.03 0.01 0.02 0.01 0.02 0.02 0.04
0.00 0.00 0.00 0.00 0.00 0.00 0.00 0.00 0.00 0.00 0.00 0.00 0.00 0.00 0.00 0.00 0.00 0.00 0.00 0.00 0.00 0.00 0.00 0.00 0.00 0.00 0.00 0.00 0.00 0.00 0.00 0.01 0.01 0.01 0.01 0.03 0.01 0.03 0.03 0.01 0.00 0.00 0.00 0.00 0.01 0.01 0.00 0.00 0.00 0.00 0.00 0.00 0.00 0.00 0.00 0.00 0.00 0.00 0.00 0.00 0.00 0.00 0.00 0.00 0.00 0.00 0.00 0.00 0.00 0.00 0.00 0.00 0.00 0.00 0.00 0.00 0.00 0.00 0.00 0.00 0.00 0.02 0.02 0.01 0.01 0.02 0.00 0.00 0.01 0.01 0.01 0.01 0.01 0.02 0.02 0.01 0.02
0.00 0.00 0.00 0.00 0.00 0.00 0.00 0.00 0.00 0.00 0.00 0.00 0.00 0.00 0.00 0.00 0.00 0.00 0.00 0.00 0.00 0.00 0.00 0.00 0.00 0.00 0.00 0.00 0.00 0.00 0.00 0.00 0.00 0.00 0.03 0.01 0.04 0.04 0.00 0.00 0.00 0.00 0.00 0.00 0.00 0.00 0.00 0.00 0.00 0.00 0.00 0.00 0.00 0.00 0.00 0.00 0.00 0.00 0.00 0.00 0.00 0.00 0.00 0.00 0.00 0.00 0.00 0.00 0.00 0.00 0.00 0.00 0.00 0.00 0.00 0.00 0.02 0.03 0.04 0.01 0.00 0.00 0.00 0.01 0.02 0.02 0.03 0.01 0.01 0.01 0.02 0.01 0.02 0.02 0.01 0.01 0.01